• Em Portugal
  • Lista de países
  • Para 7 dias
  • Temperatura da água
  • Mapas de satélite
  • Mapa do tempo
  • Widgets de tempo
  • user-avatar
    Iniciar Sessão

    Previsão horária em Mardin

    Hoje, 22 Junho, Sexta-feira

    Tempo Temperatura Precipitação Vento Pressão Humidade
    00:00 +28°C° 0 mm 4 m/s 692 mmHg 34%
    01:00 +27°C° 0 mm 4 m/s 692 mmHg 36%
    02:00 +27°C° 0 mm 3 m/s 692 mmHg 39%
    03:00 +26°C° 0 mm 3 m/s 691 mmHg 40%
    04:00 +26°C° 0 mm 3 m/s 691 mmHg 42%
    05:00 +25°C° 0 mm 3 m/s 691 mmHg 44%
    06:00 +25°C° 0 mm 2 m/s 691 mmHg 47%
    07:00 +26°C° 0 mm 2 m/s 691 mmHg 43%
    08:00 +28°C° 0 mm 2 m/s 692 mmHg 39%
    09:00 +29°C° 0 mm 2 m/s 692 mmHg 34%
    10:00 +31°C° 0 mm 3 m/s 692 mmHg 31%
    11:00 +33°C° 0 mm 3 m/s 692 mmHg 27%
    12:00 +34°C° 0 mm 3 m/s 692 mmHg 23%
    13:00 +34°C° 0 mm 3 m/s 692 mmHg 21%
    14:00 +35°C° 0 mm 3 m/s 691 mmHg 20%
    15:00 +36°C° 0 mm 4 m/s 690 mmHg 17%
    16:00 +36°C° 0 mm 4 m/s 690 mmHg 17%
    17:00 +36°C° 0 mm 4 m/s 690 mmHg 17%
    18:00 +35°C° 0 mm 4 m/s 690 mmHg 17%
    19:00 +34°C° 0 mm 3 m/s 690 mmHg 19%
    20:00 +33°C° 0 mm 3 m/s 690 mmHg 21%
    21:00 +31°C° 0 mm 3 m/s 690 mmHg 23%
    22:00 +30°C° 0 mm 3 m/s 690 mmHg 26%
    23:00 +29°C° 0 mm 3 m/s 690 mmHg 30%

    Amanhã, 23 Junho, Sábado

    Tempo Temperatura Precipitação Vento Pressão Humidade
    00:00 +28°C° 0 mm 4 m/s 690 mmHg 33%
    01:00 +28°C° 0 mm 3 m/s 690 mmHg 36%
    02:00 +27°C° 0 mm 3 m/s 690 mmHg 39%
    03:00 +26°C° 0 mm 3 m/s 690 mmHg 42%
    04:00 +26°C° 0 mm 3 m/s 690 mmHg 43%
    05:00 +26°C° 0 mm 2 m/s 690 mmHg 44%
    06:00 +26°C° 0 mm 2 m/s 690 mmHg 45%
    07:00 +27°C° 0 mm 2 m/s 690 mmHg 40%
    08:00 +29°C° 0 mm 2 m/s 691 mmHg 35%
    09:00 +31°C° 0 mm 2 m/s 691 mmHg 30%
    10:00 +32°C° 0 mm 2 m/s 691 mmHg 27%
    11:00 +34°C° 0 mm 2 m/s 691 mmHg 24%
    12:00 +36°C° 0 mm 2 m/s 691 mmHg 20%
    13:00 +36°C° 0 mm 2 m/s 691 mmHg 19%
    14:00 +37°C° 0 mm 2 m/s 691 mmHg 18%
    15:00 +37°C° 0 mm 2 m/s 690 mmHg 17%
    16:00 +37°C° 0 mm 3 m/s 690 mmHg 17%
    17:00 +37°C° 0 mm 3 m/s 690 mmHg 17%
    18:00 +37°C° 0 mm 3 m/s 690 mmHg 17%
    19:00 +36°C° 0 mm 3 m/s 690 mmHg 19%
    20:00 +35°C° 0 mm 2 m/s 690 mmHg 21%
    21:00 +34°C° 0 mm 2 m/s 690 mmHg 22%
    22:00 +33°C° 0 mm 3 m/s 690 mmHg 24%
    23:00 +31°C° 0 mm 3 m/s 690 mmHg 27%

    Depois de amanhã, 24 Junho, Domingo

    Tempo Temperatura Precipitação Vento Pressão Humidade
    00:00 +30°C° 0 mm 3 m/s 690 mmHg 29%
    01:00 +29°C° 0 mm 3 m/s 690 mmHg 30%
    02:00 +29°C° 0 mm 3 m/s 690 mmHg 31%
    03:00 +28°C° 0 mm 3 m/s 690 mmHg 31%
    04:00 +28°C° 0 mm 2 m/s 690 mmHg 32%
    05:00 +28°C° 0 mm 2 m/s 690 mmHg 32%
    06:00 +28°C° 0 mm 2 m/s 690 mmHg 33%
    07:00 +29°C° 0 mm 2 m/s 690 mmHg 30%
    08:00 +31°C° 0 mm 2 m/s 690 mmHg 26%
    09:00 +34°C° 0 mm 2 m/s 691 mmHg 23%
    10:00 +35°C° 0 mm 2 m/s 691 mmHg 21%
    11:00 +35°C° 0 mm 1 m/s 691 mmHg 19%
    12:00 +37°C° 0 mm 1 m/s 691 mmHg 17%
    13:00 +37°C° 0 mm 1 m/s 690 mmHg 16%
    14:00 +39°C° 0 mm 1 m/s 690 mmHg 15%
    15:00 +39°C° 0 mm 2 m/s 690 mmHg 13%
    16:00 +39°C° 0 mm 2 m/s 690 mmHg 13%
    17:00 +39°C° 0 mm 2 m/s 689 mmHg 13%
    18:00 +39°C° 0 mm 2 m/s 689 mmHg 13%
    19:00 +37°C° 0 mm 2 m/s 689 mmHg 15%
    20:00 +36°C° 0 mm 2 m/s 690 mmHg 17%
    21:00 +35°C° 0 mm 2 m/s 690 mmHg 20%
    22:00 +34°C° 0 mm 3 m/s 690 mmHg 22%
    23:00 +33°C° 0 mm 3 m/s 690 mmHg 25%

    25 Junho, Segunda-feira

    Tempo Temperatura Precipitação Vento Pressão Humidade
    00:00 +31°C° 0 mm 3 m/s 690 mmHg 28%
    01:00 +30°C° 0 mm 3 m/s 690 mmHg 30%
    02:00 +29°C° 0 mm 3 m/s 690 mmHg 33%
    03:00 +29°C° 0 mm 2 m/s 689 mmHg 35%
    04:00 +28°C° 0 mm 2 m/s 690 mmHg 36%
    05:00 +28°C° 0 mm 2 m/s 690 mmHg 37%
    06:00 +28°C° 0 mm 2 m/s 690 mmHg 37%
    07:00 +30°C° 0 mm 2 m/s 690 mmHg 33%
    08:00 +31°C° 0 mm 2 m/s 691 mmHg 29%
    09:00 +34°C° 0 mm 2 m/s 691 mmHg 26%
    10:00 +35°C° 0 mm 2 m/s 691 mmHg 23%
    11:00 +36°C° 0 mm 2 m/s 691 mmHg 21%
    12:00 +38°C° 0 mm 2 m/s 691 mmHg 18%
    13:00 +38°C° 0 mm 2 m/s 691 mmHg 17%
    14:00 +39°C° 0 mm 3 m/s 691 mmHg 16%
    15:00 +40°C° 0 mm 3 m/s 690 mmHg 15%
    16:00 +39°C° 0 mm 3 m/s 690 mmHg 15%
    17:00 +39°C° 0 mm 3 m/s 690 mmHg 15%
    18:00 +39°C° 0 mm 3 m/s 690 mmHg 15%
    19:00 +38°C° 0 mm 3 m/s 690 mmHg 17%
    20:00 +36°C° 0 mm 3 m/s 690 mmHg 19%
    21:00 +35°C° 0 mm 3 m/s 691 mmHg 21%
    22:00 +34°C° 0 mm 3 m/s 690 mmHg 24%
    23:00 +33°C° 0 mm 3 m/s 690 mmHg 28%

    26 Junho, Terça-feira

    Tempo Temperatura Precipitação Vento Pressão Humidade
    00:00 +33°C° 0 mm 4 m/s 690 mmHg 32%
    01:00 +31°C° 0 mm 3 m/s 690 mmHg 36%
    02:00 +30°C° 0 mm 2 m/s 690 mmHg 40%
    03:00 +29°C° 0 mm 2 m/s 690 mmHg 45%
    04:00 +29°C° 0 mm 2 m/s 690 mmHg 46%
    05:00 +29°C° 0 mm 2 m/s 690 mmHg 48%
    06:00 +29°C° 0 mm 1 m/s 690 mmHg 49%
    07:00 +30°C° 0 mm 1 m/s 691 mmHg 43%
    08:00 +32°C° 0 mm 2 m/s 691 mmHg 38%
    09:00 +35°C° 0 mm 2 m/s 691 mmHg 32%
    10:00 +36°C° 0 mm 2 m/s 691 mmHg 28%
    11:00 +37°C° 0 mm 3 m/s 691 mmHg 24%
    12:00 +38°C° 0 mm 3 m/s 692 mmHg 20%
    13:00 +39°C° 0 mm 3 m/s 691 mmHg 18%
    14:00 +41°C° 0 mm 4 m/s 691 mmHg 16%
    15:00 +41°C° 0 mm 4 m/s 691 mmHg 14%
    16:00 +41°C° 0 mm 4 m/s 691 mmHg 14%
    17:00 +41°C° 0 mm 5 m/s 690 mmHg 14%
    18:00 +40°C° 0 mm 5 m/s 690 mmHg 13%
    19:00 +38°C° 0 mm 4 m/s 690 mmHg 14%
    20:00 +36°C° 0 mm 4 m/s 690 mmHg 16%
    21:00 +35°C° 0 mm 4 m/s 690 mmHg 17%
    22:00 +34°C° 0 mm 3 m/s 690 mmHg 19%
    23:00 +33°C° 0 mm 3 m/s 690 mmHg 22%

    27 Junho, Quarta-feira

    Tempo Temperatura Precipitação Vento Pressão Humidade
    00:00 +31°C° 0 mm 3 m/s 690 mmHg 25%
    01:00 +30°C° 0 mm 2 m/s 690 mmHg 28%
    02:00 +29°C° 0 mm 2 m/s 690 mmHg 32%
    03:00 +28°C° 0 mm 1 m/s 690 mmHg 36%
    04:00 +28°C° 0 mm 1 m/s 690 mmHg 38%
    05:00 +28°C° 0 mm 1 m/s 690 mmHg 40%
    06:00 +28°C° 0 mm 1 m/s 690 mmHg 42%
    07:00 +30°C° 0 mm 1 m/s 690 mmHg 37%
    08:00 +32°C° 0 mm 2 m/s 691 mmHg 33%
    09:00 +34°C° 0 mm 2 m/s 691 mmHg 28%
    10:00 +36°C° 0 mm 2 m/s 691 mmHg 23%
    11:00 +37°C° 0 mm 3 m/s 691 mmHg 19%
    12:00 +39°C° 0 mm 3 m/s 691 mmHg 14%
    13:00 +41°C° 0 mm 4 m/s 691 mmHg 13%
    14:00 +41°C° 0 mm 4 m/s 691 mmHg 11%
    15:00 +42°C° 0 mm 5 m/s 691 mmHg 10%
    16:00 +42°C° 0 mm 5 m/s 690 mmHg 11%
    17:00 +41°C° 0 mm 5 m/s 690 mmHg 11%
    18:00 +41°C° 0 mm 5 m/s 690 mmHg 11%
    19:00 +38°C° 0 mm 4 m/s 690 mmHg 13%
    20:00 +37°C° 0 mm 4 m/s 690 mmHg 14%
    21:00 +35°C° 0 mm 4 m/s 690 mmHg 16%
    22:00 +34°C° 0 mm 4 m/s 690 mmHg 17%
    23:00 +33°C° 0 mm 3 m/s 690 mmHg 19%
    Mostrar mais